Location: ??????
(41.3164°N, 22.6615°E)
Time: 22:31:12
(UTC+00:00)

Cosmos 1943 - Visible Passes

Search period start: 10 August 2022 00:00
Search period end: 20 August 2022 00:00
Orbit: 834 x 848 km, 71.0° (Epoch: 09 August)

Date Brightness Start Highest point End Pass type
(mag) Time Alt. Az. Time Alt. Az. Time Alt. Az.
10 Aug 4.6 18:05:24 10° N 18:09:46 22° NE 18:14:06 10° ESE visible
10 Aug 3.6 19:48:40 10° NNW 19:54:11 58° WSW 19:56:23 35° S visible
11 Aug 3.5 19:33:31 10° NNW 19:39:05 61° WSW 19:41:50 29° S visible
12 Aug 3.5 19:18:23 10° NNW 19:23:57 65° WSW 19:27:21 24° S visible
13 Aug 3.4 19:03:14 10° NNW 19:08:50 69° WSW 19:12:55 19° S visible
14 Aug 3.4 18:48:05 10° NNW 18:53:43 73° WSW 18:58:33 14° SSE visible
15 Aug 3.3 18:32:57 10° NNW 18:38:35 77° WSW 18:44:12 10° SSE visible
16 Aug 3.3 18:17:48 10° NNW 18:23:27 81° WSW 18:29:06 10° SSE visible
17 Aug 3.3 18:02:40 10° NNW 18:08:20 85° WSW 18:13:59 10° SSE visible
17 Aug 5.9 19:50:25 10° W 19:51:26 10° W 19:52:27 10° WSW visible
18 Aug 3.3 17:47:32 10° NNW 17:53:12 89° WSW 17:58:51 10° SSE visible
18 Aug 5.9 19:34:42 10° WNW 19:36:20 11° W 19:38:00 10° WSW visible
19 Aug 5.9 19:19:09 10° WNW 19:21:16 12° W 19:23:21 10° WSW visible
